GW5321 Weather Reports


time (UTC)temp
F
wind
direction
speed
knots
gust
knots
rain 1hr
in
rain 24hr
in
rain mn
in
humidity
%
barometer
mb
20260504023929 67 203 2.6 4.3 0.00 0.00 0.00 62 1019.0
20260504023429 67 234 0.9 2.6 0.00 0.00 0.00 62 1019.0
20260504022932 67 199 1.7 2.6 0.00 0.00 0.00 62 1019.0
20260504022430 67 184 1.7 3.5 0.00 0.00 0.00 62 1019.0
20260504021929 68 136 1.7 4.3 0.00 0.00 0.00 62 1019.0
20260504021430 68 230 1.7 2.6 0.00 0.00 0.00 62 1019.0
20260504020929 68 212 0.9 3.5 0.00 0.00 0.00 61 1019.0
20260504020429 68 277 1.7 3.5 0.00 0.00 0.00 60 1019.0
20260504015929 69 266 2.6 5.2 0.00 0.00 0.00 59 1018.0
20260504015429 69 260 3.5 6.1 0.00 0.00 0.00 59 1018.0
20260504014929 69 273 3.5 5.2 0.00 0.00 0.00 58 1018.0
20260504014429 70 257 3.5 7.0 0.00 0.00 0.00 56 1018.0
20260504013929 70 269 2.6 3.5 0.00 0.00 0.00 53 1018.0
20260504013429 71 241 0.0 0.9 0.00 0.00 0.00 54 1018.0
20260504012929 71 48 0.0 0.9 0.00 0.00 0.00 54 1018.0
20260504012429 71 0 0.9 1.7 0.00 0.00 0.00 54 1018.0
20260504011929 71 307 1.7 2.6 0.00 0.00 0.00 55 1018.0
20260504011429 71 300 2.6 4.3 0.00 0.00 0.00 56 1018.0
20260504010929 71 297 1.7 3.5 0.00 0.00 0.00 59 1018.0
20260504010429 71 272 3.5 5.2 0.00 0.00 0.00 60 1018.0
20260504005931 71 259 5.2 7.8 0.00 0.00 0.00 61 1018.0
20260504005429 71 259 6.1 7.8 0.00 0.00 0.00 63 1018.0
20260504004930 71 275 5.2 7.0 0.00 0.00 0.00 63 1018.0
20260504004429 71 255 7.0 8.7 0.00 0.00 0.00 64 1018.0
20260504003929 71 242 7.0 9.6 0.00 0.00 0.00 64 1018.0
20260504003429 70 258 8.7 10.4 0.00 0.00 0.00 65 1018.0
20260504002929 71 256 7.0 10.4 0.00 0.00 0.00 65 1018.0
20260504002429 71 249 7.0 9.6 0.00 0.00 0.00 65 1018.0
20260504001929 71 247 7.8 10.4 0.00 0.00 0.00 64 1018.0
20260504001431 71 252 7.0 8.7 0.00 0.00 0.00 64 1018.0
20260504000929 71 239 6.1 7.8 0.00 0.00 0.00 64 1018.0
20260504000431 71 254 7.0 7.8 0.00 0.00 0.00 63 1018.0
20260503235929 71 239 7.0 7.8 0.00 0.00 0.00 64 1018.0
20260503235429 71 245 7.0 9.6 0.00 0.00 0.00 64 1018.0
20260503234929 71 242 7.0 9.6 0.00 0.00 0.00 63 1018.0
20260503234429 71 246 6.1 7.8 0.00 0.00 0.00 62 1018.0
20260503233929 71 239 7.0 9.6 0.00 0.00 0.00 61 1018.0
20260503233429 71 234 6.1 7.8 0.00 0.00 0.00 62 1018.0
20260503232929 71 253 7.0 9.6 0.00 0.00 0.00 61 1018.0
20260503232429 71 245 7.8 9.6 0.00 0.00 0.00 61 1018.0
20260503231929 71 244 7.8 11.3 0.00 0.00 0.00 59 1018.0
20260503231433 71 250 7.8 9.6 0.00 0.00 0.00 60 1018.0
20260503230929 71 246 8.7 10.4 0.00 0.00 0.00 60 1018.0
20260503230429 71 254 8.7 9.6 0.00 0.00 0.00 59 1018.0
20260503225931 72 245 7.8 10.4 0.00 0.00 0.00 59 1018.0
20260503225429 72 250 7.0 9.6 0.00 0.00 0.00 58 1018.0
20260503224929 72 241 7.8 9.6 0.00 0.00 0.00 56 1018.0
20260503224429 73 221 6.1 7.8 0.00 0.00 0.00 57 1018.0
20260503223929 73 222 7.0 9.6 0.00 0.00 0.00 56 1018.0
20260503223429 73 225 6.1 7.8 0.00 0.00 0.00 55 1018.0
20260503222930 73 232 7.0 8.7 0.00 0.00 0.00 54 1018.0
20260503222429 73 234 7.0 8.7 0.00 0.00 0.00 53 1018.0
20260503221929 73 229 6.1 7.8 0.00 0.00 0.00 51 1018.0
20260503221430 73 226 5.2 7.8 0.00 0.00 0.00 50 1018.0
20260503220929 73 240 6.1 7.8 0.00 0.00 0.00 50 1018.0
20260503220429 73 235 6.1 7.8 0.00 0.00 0.00 49 1018.0
20260503215930 73 237 6.1 7.8 0.00 0.00 0.00 49 1018.0
20260503215429 73 227 6.1 7.8 0.00 0.00 0.00 49 1018.0
20260503214929 73 225 6.1 8.7 0.00 0.00 0.00 49 1018.0
20260503214429 73 234 6.1 7.8 0.00 0.00 0.00 47 1018.0
20260503213929 73 214 7.0 10.4 0.00 0.00 0.00 48 1018.0
20260503213429 73 218 7.0 10.4 0.00 0.00 0.00 47 1018.0
20260503212929 74 234 5.2 7.0 0.00 0.00 0.00 43 1018.0
20260503212429 73 244 7.0 9.6 0.00 0.00 0.00 45 1018.0
20260503211929 74 228 7.0 8.7 0.00 0.00 0.00 46 1018.0
20260503211430 74 254 6.1 9.6 0.00 0.00 0.00 45 1018.0
20260503210929 73 258 6.1 7.8 0.00 0.00 0.00 44 1018.0
20260503210429 73 255 6.1 7.8 0.00 0.00 0.00 47 1018.0
20260503205929 73 231 6.1 7.8 0.00 0.00 0.00 50 1018.0
20260503205429 73 230 6.1 8.7 0.00 0.00 0.00 51 1018.0
20260503204929 73 222 6.1 7.0 0.00 0.00 0.00 50 1019.0
20260503204429 73 225 7.0 8.7 0.00 0.00 0.00 48 1019.0
20260503203929 73 226 7.0 9.6 0.00 0.00 0.00 48 1019.0
20260503203429 73 240 6.1 8.7 0.00 0.00 0.00 50 1019.0
20260503202929 73 245 6.1 7.8 0.00 0.00 0.00 50 1019.0
20260503202429 73 235 5.2 8.7 0.00 0.00 0.00 52 1019.0
20260503201929 73 222 6.1 7.8 0.00 0.00 0.00 51 1019.0
20260503201429 73 180 4.3 8.7 0.00 0.00 0.00 51 1019.0
20260503200929 73 162 5.2 7.0 0.00 0.00 0.00 50 1019.0
20260503200429 73 148 7.0 8.7 0.00 0.00 0.00 49 1019.0
20260503195929 73 147 5.2 9.6 0.00 0.00 0.00 48 1019.0
20260503195429 73 181 4.3 7.8 0.00 0.00 0.00 42 1019.0
20260503194929 74 169 4.3 7.8 0.00 0.00 0.00 44 1019.0
20260503194430 74 191 5.2 7.8 0.00 0.00 0.00 46 1019.0
20260503193929 75 157 4.3 7.8 0.00 0.00 0.00 44 1019.0
20260503193429 76 205 4.3 7.0 0.00 0.00 0.00 47 1020.0
20260503192929 77 113 4.3 6.1 0.00 0.00 0.00 36 1020.0
20260503192429 78 112 3.5 7.0 0.00 0.00 0.00 32 1020.0
20260503191929 78 64 3.5 6.1 0.00 0.00 0.00 32 1020.0
20260503191429 78 293 4.3 5.2 0.00 0.00 0.00 32 1020.0
20260503190929 78 75 5.2 7.0 0.00 0.00 0.00 31 1020.0
20260503190429 78 96 4.3 7.0 0.00 0.00 0.00 32 1020.0
20260503185929 78 79 3.5 8.7 0.00 0.00 0.00 32 1020.0
20260503185429 78 127 3.5 7.0 0.00 0.00 0.00 32 1020.0
20260503184929 78 201 2.6 3.5 0.00 0.00 0.00 32 1020.0
20260503184429 77 161 1.7 4.3 0.00 0.00 0.00 32 1020.0
20260503183930 77 271 3.5 6.1 0.00 0.00 0.00 32 1020.0
20260503183430 76 219 3.5 6.1 0.00 0.00 0.00 32 1020.0
20260503182929 76 80 3.5 5.2 0.00 0.00 0.00 32 1020.0
20260503182430 76 91 4.3 7.8 0.00 0.00 0.00 32 1020.0
20260503181929 76 206 2.6 4.3 0.00 0.00 0.00 32 1021.0
20260503181429 76 21 0.9 3.5 0.00 0.00 0.00 32 1021.0
20260503180930 76 100 4.3 7.0 0.00 0.00 0.00 32 1021.0
20260503180429 76 22 3.5 7.0 0.00 0.00 0.00 31 1021.0
20260503175929 76 163 2.6 4.3 0.00 0.00 0.00 31 1021.0
20260503175429 76 170 4.3 7.0 0.00 0.00 0.00 31 1021.0
20260503174929 76 92 5.2 7.8 0.00 0.00 0.00 30 1021.0
20260503174429 76 71 2.6 7.0 0.00 0.00 0.00 30 1021.0
20260503173929 75 254 3.5 7.0 0.00 0.00 0.00 31 1021.0
20260503173430 75 144 5.2 7.8 0.00 0.00 0.00 31 1021.0
20260503172930 75 56 3.5 7.0 0.00 0.00 0.00 30 1021.0
20260503172429 75 67 5.2 9.6 0.00 0.00 0.00 31 1021.0
20260503171930 75 164 4.3 7.8 0.00 0.00 0.00 31 1021.0
20260503171429 75 190 7.0 12.2 0.00 0.00 0.00 31 1021.0
20260503170929 74 113 4.3 7.8 0.00 0.00 0.00 33 1021.0
20260503170429 74 192 4.3 6.1 0.00 0.00 0.00 32 1021.0
20260503150929 72 128 3.5 5.2 0.00 0.00 0.00 41 1022.0
20260503150429 71 195 1.7 3.5 0.00 0.00 0.00 44 1022.0
20260503130929 62 181 3.5 5.2 0.00 0.00 0.00 58 1021.0
20260503130429 62 202 2.6 4.3 0.00 0.00 0.00 59 1021.0
20260503110429 57 193 0.0 0.0 0.00 0.00 0.00 66 1020.0
20260503081429 59 172 1.7 1.7 0.00 0.00 0.00 64 1019.0
20260503080929 59 152 3.5 3.5 0.00 0.00 0.00 63 1019.0
20260503080429 59 181 3.5 5.2 0.00 0.00 0.00 63 1019.0
20260503072929 59 180 1.7 3.5 0.00 0.00 0.00 63 1019.0
20260503041929 63 174 3.5 5.2 0.00 0.00 1.26 59 1018.0
20260503041431 63 162 3.5 5.2 0.00 0.00 1.26 60 1018.0
20260503040929 63 177 1.7 3.5 0.00 0.00 1.26 59 1018.0
20260503040429 63 187 3.5 4.3 0.00 0.00 1.26 58 1018.0
20260503033429 64 175 4.3 6.1 0.00 0.00 1.26 54 1018.0
20260503032930 64 185 4.3 6.1 0.00 0.00 1.26 55 1018.0
20260503031930 64 179 4.3 5.2 0.00 0.00 1.26 53 1017.0
20260503031430 64 187 4.3 6.1 0.00 0.00 1.26 53 1017.0
20260503030929 64 199 4.3 7.0 0.00 0.00 1.26 52 1017.0
20260503030429 64 184 2.6 5.2 0.00 0.00 1.26 52 1017.0
20260503025931 64 190 4.3 5.2 0.00 0.00 1.26 53 1017.0
20260503025429 64 190 3.5 7.8 0.00 0.00 1.26 52 1017.0
20260503024929 65 176 3.5 5.2 0.00 0.00 1.26 52 1017.0
20260503024429 65 177 3.5 5.2 0.00 0.00 1.26 51 1017.0